Time,TemperatureF,DewpointF,PressureIn,WindDirection,WindDirectionDegrees,WindSpeedMPH,WindSpeedGustMPH,Humidity,HourlyPrecipIn,Conditions,Clouds,dailyrainin,SoftwareType,DateUTC
2013-01-25 00:02:00,13.6,3.3,30.27,SSW,205,11.5,11.5,63,0.00,CLR,,0.00,WeatherDisplay:10.37,2013-01-25 06:02:00,
2013-01-25 00:07:00,13.5,3.9,30.25,SSE,163,3.5,3.5,65,0.00,CLR,,0.00,WeatherDisplay:10.37,2013-01-25 06:07:00,
2013-01-25 00:12:00,13.5,4.2,30.26,SSW,211,11.5,11.5,66,0.00,CLR,,0.00,WeatherDisplay:10.37,2013-01-25 06:12:00,
2013-01-25 00:17:00,13.4,4.8,30.25,SSW,202,9.2,9.2,68,0.00,CLR,,0.00,WeatherDisplay:10.37,2013-01-25 06:17:00,
2013-01-25 00:22:00,13.2,5.2,30.24,SW,234,12.7,12.7,70,0.00,CLR,,0.00,WeatherDisplay:10.37,2013-01-25 06:22:00,
2013-01-25 00:27:00,13.2,5.6,30.24,South,183,5.8,5.8,71,0.00,CLR,,0.00,WeatherDisplay:10.37,2013-01-25 06:27:00,
2013-01-25 00:32:00,13.2,5.9,30.26,SW,227,12.7,12.7,72,0.00,CLR,,0.00,WeatherDisplay:10.37,2013-01-25 06:32:00,
2013-01-25 00:37:00,13.2,5.9,30.25,SW,219,10.4,10.4,72,0.00,CLR,,0.00,WeatherDisplay:10.37,2013-01-25 06:37:00,
2013-01-25 00:42:00,13.2,6.2,30.25,SW,217,8.1,8.1,73,0.00,CLR,,0.00,WeatherDisplay:10.37,2013-01-25 06:42:00,
2013-01-25 00:47:00,13.3,6.3,30.25,SW,221,1.1,1.1,73,0.00,CLR,,0.00,WeatherDisplay:10.37,2013-01-25 06:47:00,
2013-01-25 00:52:00,13.3,6.6,30.25,SW,225,8.1,8.1,74,0.00,CLR,,0.00,WeatherDisplay:10.37,2013-01-25 06:52:00,
2013-01-25 00:57:00,13.3,6.6,30.25,SSW,209,2.3,2.3,74,0.00,CLR,,0.00,WeatherDisplay:10.37,2013-01-25 06:57:00,
2013-01-25 01:02:00,13.3,6.9,30.24,SSW,204,12.7,12.7,75,0.00,CLR,,0.00,WeatherDisplay:10.37,2013-01-25 07:02:00,
2013-01-25 01:07:00,13.3,6.9,30.22,SW,230,11.5,11.5,75,0.00,CLR,,0.00,WeatherDisplay:10.37,2013-01-25 07:07:00,
2013-01-25 01:12:00,13.2,6.8,30.22,SSW,198,9.2,9.2,75,0.00,CLR,,0.00,WeatherDisplay:10.37,2013-01-25 07:12:00,
2013-01-25 01:17:00,13.2,7.3,30.22,West,259,9.2,9.2,77,0.00,CLR,,0.00,WeatherDisplay:10.37,2013-01-25 07:17:00,
2013-01-25 01:22:00,13.2,7.3,30.22,South,182,9.2,9.2,77,0.00,CLR,,0.00,WeatherDisplay:10.37,2013-01-25 07:22:00,
2013-01-25 01:27:00,13.2,7.3,30.21,SW,222,12.7,12.7,77,0.00,CLR,,0.00,WeatherDisplay:10.37,2013-01-25 07:27:00,
2013-01-25 01:32:00,13.2,7.3,30.21,SSE,164,2.3,2.3,77,0.00,CLR,,0.00,WeatherDisplay:10.37,2013-01-25 07:32:00,
2013-01-25 01:37:00,13.3,7.4,30.21,SW,215,11.5,11.5,77,0.00,CLR,,0.00,WeatherDisplay:10.37,2013-01-25 07:37:00,
2013-01-25 01:42:00,13.4,7.5,30.20,SE,142,3.5,3.5,77,0.00,CLR,,0.00,WeatherDisplay:10.37,2013-01-25 07:42:00,
2013-01-25 01:47:00,13.4,7.5,30.19,SSW,203,11.5,11.5,77,0.00,CLR,,0.00,WeatherDisplay:10.37,2013-01-25 07:47:00,
2013-01-25 01:52:00,13.4,7.5,30.19,SSW,202,9.2,9.2,77,0.00,CLR,,0.00,WeatherDisplay:10.37,2013-01-25 07:52:00,
2013-01-25 01:57:00,13.5,7.3,30.19,SW,217,4.6,4.6,76,0.00,CLR,,0.00,WeatherDisplay:10.37,2013-01-25 07:57:00,
2013-01-25 02:02:00,13.6,7.4,30.19,SW,214,4.6,4.6,76,0.00,CLR,,0.00,WeatherDisplay:10.37,2013-01-25 08:02:00,
2013-01-25 02:07:00,13.7,7.5,30.19,South,170,13.8,13.8,76,0.00,CLR,,0.00,WeatherDisplay:10.37,2013-01-25 08:07:00,
2013-01-25 02:12:00,13.7,7.5,30.19,South,187,8.1,8.1,76,0.00,CLR,,0.00,WeatherDisplay:10.37,2013-01-25 08:12:00,
2013-01-25 02:17:00,13.8,7.6,30.18,SSW,209,4.6,4.6,76,0.00,CLR,,0.00,WeatherDisplay:10.37,2013-01-25 08:17:00,
2013-01-25 02:22:00,13.9,7.4,30.18,SSE,160,3.5,3.5,75,0.00,CLR,,0.00,WeatherDisplay:10.37,2013-01-25 08:22:00,
2013-01-25 02:27:00,13.9,7.4,30.17,WSW,239,13.8,13.8,75,0.00,CLR,,0.00,WeatherDisplay:10.37,2013-01-25 08:27:00,
2013-01-25 02:32:00,14.0,7.5,30.17,SW,230,7.0,7.0,75,0.00,CLR,,0.00,WeatherDisplay:10.37,2013-01-25 08:32:00,
2013-01-25 02:37:00,14.1,7.6,30.17,South,179,3.5,3.5,75,0.00,CLR,,0.00,WeatherDisplay:10.37,2013-01-25 08:37:00,
2013-01-25 02:43:00,14.2,7.4,30.17,SSW,198,11.5,11.5,74,0.00,CLR,,0.00,WeatherDisplay:10.37,2013-01-25 08:43:00,
2013-01-25 02:48:00,14.3,7.5,30.17,SSW,210,12.7,12.7,74,0.00,CLR,,0.00,WeatherDisplay:10.37,2013-01-25 08:48:00,
2013-01-25 02:53:00,14.3,7.5,30.17,SW,218,8.0,8.0,74,0.00,CLR,,0.00,WeatherDisplay:10.37,2013-01-25 08:53:00,
2013-01-25 02:58:00,14.4,7.6,30.16,SW,223,5.8,5.8,74,0.00,CLR,,0.00,WeatherDisplay:10.37,2013-01-25 08:58:00,
2013-01-25 03:03:00,14.4,7.3,30.16,SW,224,17.3,17.3,73,0.00,CLR,,0.00,WeatherDisplay:10.37,2013-01-25 09:03:00,
2013-01-25 03:08:00,14.4,7.3,30.16,SSW,192,12.7,12.7,73,0.00,CLR,,0.00,WeatherDisplay:10.37,2013-01-25 09:08:00,
2013-01-25 03:13:00,14.4,7.3,30.16,SW,217,3.5,5.1,73,0.00,CLR,,0.00,WeatherDisplay:10.37,2013-01-25 09:13:00,
2013-01-25 03:18:00,14.5,7.4,30.15,SW,230,9.2,9.2,73,0.00,CLR,,0.00,WeatherDisplay:10.37,2013-01-25 09:18:00,
2013-01-25 03:23:00,14.6,7.5,30.15,SSW,207,11.5,11.5,73,0.00,CLR,,0.00,WeatherDisplay:10.37,2013-01-25 09:23:00,
2013-01-25 03:28:00,14.6,7.5,30.14,SSE,156,10.4,10.4,73,0.00,CLR,,0.00,WeatherDisplay:10.37,2013-01-25 09:28:00,
2013-01-25 03:33:00,14.6,7.5,30.14,SSW,203,11.5,11.5,73,0.00,CLR,,0.00,WeatherDisplay:10.37,2013-01-25 09:33:00,
2013-01-25 03:38:00,14.7,7.6,30.14,SSW,213,3.5,3.5,73,0.00,CLR,,0.00,WeatherDisplay:10.37,2013-01-25 09:38:00,
2013-01-25 03:43:00,14.8,7.4,30.14,South,191,10.4,10.4,72,0.00,CLR,,0.00,WeatherDisplay:10.37,2013-01-25 09:43:00,
2013-01-25 03:48:00,14.8,7.4,30.13,SSW,211,12.7,12.7,72,0.00,CLR,,0.00,WeatherDisplay:10.37,2013-01-25 09:48:00,
2013-01-25 03:53:00,14.8,7.4,30.12,SW,214,12.7,12.7,72,0.00,CLR,,0.00,WeatherDisplay:10.37,2013-01-25 09:53:00,
2013-01-25 03:58:00,14.9,7.5,30.12,SSW,207,10.4,10.4,72,0.00,CLR,,0.00,WeatherDisplay:10.37,2013-01-25 09:58:00,
2013-01-25 04:03:00,14.9,7.5,30.11,South,184,3.5,3.5,72,0.00,CLR,,0.00,WeatherDisplay:10.37,2013-01-25 10:03:00,
2013-01-25 04:08:00,15.0,7.3,30.11,SW,217,1.1,1.1,71,0.00,CLR,,0.00,WeatherDisplay:10.37,2013-01-25 10:08:00,
2013-01-25 04:13:00,15.0,7.3,30.10,SW,233,12.7,12.7,71,0.00,CLR,,0.00,WeatherDisplay:10.37,2013-01-25 10:13:00,
2013-01-25 04:18:00,15.1,7.4,30.10,SW,223,11.5,11.5,71,0.00,CLR,,0.00,WeatherDisplay:10.37,2013-01-25 10:18:00,
2013-01-25 04:23:00,15.2,7.2,30.09,SW,235,10.4,10.4,70,0.00,CLR,,0.00,WeatherDisplay:10.37,2013-01-25 10:23:00,
2013-01-25 04:28:00,15.3,7.3,30.09,SSW,212,5.8,5.8,70,0.00,CLR,,0.00,WeatherDisplay:10.37,2013-01-25 10:28:00,
2013-01-25 04:33:00,15.3,6.9,30.09,South,175,17.3,17.3,69,0.00,CLR,,0.00,WeatherDisplay:10.37,2013-01-25 10:33:00,
2013-01-25 04:38:00,15.4,7.0,30.08,SW,215,16.1,16.1,69,0.00,CLR,,0.00,WeatherDisplay:10.37,2013-01-25 10:38:00,
2013-01-25 04:43:00,15.5,7.1,30.08,SW,219,13.8,13.8,69,0.00,CLR,,0.00,WeatherDisplay:10.37,2013-01-25 10:43:00,
2013-01-25 04:48:00,15.5,7.1,30.08,SSW,210,3.5,3.5,69,0.00,CLR,,0.00,WeatherDisplay:10.37,2013-01-25 10:48:00,
2013-01-25 04:53:00,15.6,6.9,30.08,SSW,205,7.0,7.0,68,0.00,CLR,,0.00,WeatherDisplay:10.37,2013-01-25 10:53:00,
2013-01-25 04:58:00,15.7,6.7,30.07,SSW,195,12.0,12.0,67,0.00,CLR,,0.00,WeatherDisplay:10.37,2013-01-25 10:58:00,
2013-01-25 05:03:00,15.8,6.8,30.07,SSW,200,1.1,1.1,67,0.00,CLR,,0.00,WeatherDisplay:10.37,2013-01-25 11:03:00,
2013-01-25 05:08:00,15.8,6.8,30.07,SW,232,10.4,10.4,67,0.00,CLR,,0.00,WeatherDisplay:10.37,2013-01-25 11:08:00,
2013-01-25 05:13:00,15.8,6.8,30.06,WSW,238,11.5,11.5,67,0.00,CLR,,0.00,WeatherDisplay:10.37,2013-01-25 11:13:00,
2013-01-25 05:18:00,15.8,6.8,30.06,SSW,211,11.5,11.5,67,0.00,CLR,,0.00,WeatherDisplay:10.37,2013-01-25 11:18:00,
2013-01-25 05:23:00,15.9,6.9,30.06,WSW,243,3.5,3.5,67,0.00,CLR,,0.00,WeatherDisplay:10.37,2013-01-25 11:23:00,
2013-01-25 05:28:00,16.0,6.6,30.06,WSW,257,13.8,13.8,66,0.00,CLR,,0.00,WeatherDisplay:10.37,2013-01-25 11:28:00,
2013-01-25 05:33:00,16.1,6.7,30.06,SW,225,14.0,14.0,66,0.00,CLR,,0.00,WeatherDisplay:10.37,2013-01-25 11:33:00,
2013-01-25 05:38:00,16.2,6.8,30.06,SW,221,15.0,15.0,66,0.00,CLR,,0.00,WeatherDisplay:10.37,2013-01-25 11:38:00,
2013-01-25 05:43:00,16.3,6.6,30.06,SW,227,12.7,12.7,65,0.00,CLR,,0.00,WeatherDisplay:10.37,2013-01-25 11:43:00,
2013-01-25 05:48:00,16.4,6.7,30.06,SW,234,15.0,15.0,65,0.00,CLR,,0.00,WeatherDisplay:10.37,2013-01-25 11:48:00,
2013-01-25 05:53:00,16.3,6.6,30.05,West,260,15.0,15.0,65,0.00,CLR,,0.00,WeatherDisplay:10.37,2013-01-25 11:53:00,
2013-01-25 05:58:00,16.3,6.6,30.05,SW,222,11.5,11.5,65,0.00,CLR,,0.00,WeatherDisplay:10.37,2013-01-25 11:58:00,
2013-01-25 06:03:00,16.3,6.6,30.04,WNW,290,12.7,12.7,65,0.00,CLR,,0.00,WeatherDisplay:10.37,2013-01-25 12:03:00,
2013-01-25 06:08:00,16.3,6.6,30.04,WSW,244,16.1,16.1,65,0.00,CLR,,0.00,WeatherDisplay:10.37,2013-01-25 12:08:00,
2013-01-25 06:13:00,16.3,6.6,30.04,SSW,205,15.0,15.0,65,0.00,CLR,,0.00,WeatherDisplay:10.37,2013-01-25 12:13:00,
2013-01-25 06:18:00,16.3,6.6,30.04,SW,235,15.0,15.0,65,0.00,CLR,,0.00,WeatherDisplay:10.37,2013-01-25 12:18:00,
2013-01-25 06:23:00,16.3,6.6,30.04,SW,230,11.5,11.5,65,0.00,CLR,,0.00,WeatherDisplay:10.37,2013-01-25 12:23:00,
2013-01-25 06:28:00,16.3,6.6,30.04,SW,227,17.3,17.3,65,0.00,CLR,,0.00,WeatherDisplay:10.37,2013-01-25 12:28:00,
2013-01-25 06:33:00,16.3,6.6,30.04,WSW,239,15.0,15.0,65,0.00,CLR,,0.00,WeatherDisplay:10.37,2013-01-25 12:33:00,
2013-01-25 06:38:00,16.3,6.9,30.04,SW,232,18.4,18.4,66,0.00,CLR,,0.00,WeatherDisplay:10.37,2013-01-25 12:38:00,
2013-01-25 06:43:00,16.3,6.9,30.03,WSW,248,12.0,12.0,66,0.00,CLR,,0.00,WeatherDisplay:10.37,2013-01-25 12:43:00,
2013-01-25 06:48:00,16.3,6.9,30.03,West,275,13.8,13.8,66,0.00,CLR,,0.00,WeatherDisplay:10.37,2013-01-25 12:48:00,
2013-01-25 06:53:00,16.2,6.8,30.04,SW,234,11.5,11.5,66,0.00,CLR,,0.00,WeatherDisplay:10.37,2013-01-25 12:53:00,
2013-01-25 06:58:00,16.2,7.2,30.04,West,279,13.8,13.8,67,0.00,CLR,,0.00,WeatherDisplay:10.37,2013-01-25 12:58:00,
2013-01-25 07:03:00,16.2,7.2,30.04,West,265,12.7,12.7,67,0.00,CLR,,0.00,WeatherDisplay:10.37,2013-01-25 13:03:00,
2013-01-25 07:08:00,16.2,7.5,30.04,West,277,11.5,11.5,68,0.00,CLR,,0.00,WeatherDisplay:10.37,2013-01-25 13:08:00,
2013-01-25 07:13:00,16.2,7.5,30.05,WNW,285,3.5,4.4,68,0.00,CLR,,0.00,WeatherDisplay:10.37,2013-01-25 13:13:00,
2013-01-25 07:19:00,16.3,7.9,30.05,WSW,246,11.5,11.5,69,0.00,CLR,,0.00,WeatherDisplay:10.37,2013-01-25 13:19:00,
2013-01-25 07:24:00,16.3,7.9,30.05,WNW,290,4.6,4.6,69,0.00,CLR,,0.00,WeatherDisplay:10.37,2013-01-25 13:24:00,
2013-01-25 07:29:00,16.4,8.3,30.05,West,264,16.1,16.1,70,0.00,CLR,,0.00,WeatherDisplay:10.37,2013-01-25 13:29:00,
2013-01-25 07:34:00,16.5,8.4,30.04,West,268,11.5,11.5,70,0.00,CLR,,0.00,WeatherDisplay:10.37,2013-01-25 13:34:00,
2013-01-25 07:39:00,16.5,8.4,30.04,SW,234,3.5,3.6,70,0.00,CLR,,0.00,WeatherDisplay:10.37,2013-01-25 13:39:00,
2013-01-25 07:44:00,16.5,8.4,30.04,SW,223,4.6,4.6,70,0.00,CLR,,0.00,WeatherDisplay:10.37,2013-01-25 13:44:00,
2013-01-25 07:49:00,16.4,8.3,30.04,SW,217,13.8,13.8,70,0.00,CLR,,0.00,WeatherDisplay:10.37,2013-01-25 13:49:00,
2013-01-25 07:54:00,16.3,8.2,30.04,West,266,5.8,7.0,70,0.00,CLR,,0.00,WeatherDisplay:10.37,2013-01-25 13:54:00,
2013-01-25 07:59:00,16.3,8.5,30.04,SW,232,11.5,11.5,71,0.00,CLR,,0.00,WeatherDisplay:10.37,2013-01-25 13:59:00,
2013-01-25 08:04:00,16.2,8.4,30.04,WSW,245,10.4,10.4,71,0.00,CLR,,0.00,WeatherDisplay:10.37,2013-01-25 14:04:00,
2013-01-25 08:09:00,16.2,8.4,30.04,WSW,253,10.4,10.4,71,0.00,CLR,,0.00,WeatherDisplay:10.37,2013-01-25 14:09:00,
2013-01-25 08:14:00,16.2,8.8,30.04,SW,232,3.5,3.5,72,0.00,CLR,,0.00,WeatherDisplay:10.37,2013-01-25 14:14:00,
2013-01-25 08:19:00,16.2,8.8,30.04,WSW,252,2.3,2.3,72,0.00,CLR,,0.00,WeatherDisplay:10.37,2013-01-25 14:19:00,
2013-01-25 08:24:00,16.1,8.7,30.04,West,261,4.6,4.6,72,0.00,CLR,,0.00,WeatherDisplay:10.37,2013-01-25 14:24:00,
2013-01-25 08:29:00,16.2,9.1,30.04,WNW,287,3.5,3.5,73,0.00,CLR,,0.00,WeatherDisplay:10.37,2013-01-25 14:29:00,
2013-01-25 08:34:00,16.4,9.3,30.04,West,263,16.1,16.1,73,0.00,CLR,,0.00,WeatherDisplay:10.37,2013-01-25 14:34:00,
2013-01-25 08:39:00,16.5,9.4,30.04,WSW,240,4.6,4.6,73,0.00,CLR,,0.00,WeatherDisplay:10.37,2013-01-25 14:39:00,
2013-01-25 08:44:00,16.6,9.4,30.04,West,264,12.7,12.7,73,0.00,CLR,,0.00,WeatherDisplay:10.37,2013-01-25 14:44:00,
2013-01-25 08:49:00,16.7,9.5,30.04,SW,227,10.4,10.4,73,0.00,CLR,,0.00,WeatherDisplay:10.37,2013-01-25 14:49:00,
2013-01-25 08:54:00,16.8,9.9,30.04,West,277,3.5,3.5,74,0.00,CLR,,0.00,WeatherDisplay:10.37,2013-01-25 14:54:00,
2013-01-25 08:59:00,16.8,10.2,30.04,West,268,11.5,11.5,75,0.00,CLR,,0.00,WeatherDisplay:10.37,2013-01-25 14:59:00,
2013-01-25 09:04:00,17.0,10.4,30.04,West,264,12.7,12.7,75,0.00,CLR,,0.00,WeatherDisplay:10.37,2013-01-25 15:04:00,
2013-01-25 09:09:00,17.3,10.7,30.04,West,261,11.5,11.5,75,0.00,CLR,,0.00,WeatherDisplay:10.37,2013-01-25 15:09:00,
2013-01-25 09:14:00,17.5,10.9,30.04,West,274,8.1,8.1,75,0.00,CLR,,0.00,WeatherDisplay:10.37,2013-01-25 15:14:00,
2013-01-25 09:19:00,17.7,11.1,30.04,West,271,16.1,16.1,75,0.00,CLR,,0.00,WeatherDisplay:10.37,2013-01-25 15:19:00,
2013-01-25 09:24:00,17.9,11.3,30.04,West,275,13.8,13.8,75,0.00,CLR,,0.00,WeatherDisplay:10.37,2013-01-25 15:24:00,
2013-01-25 09:29:00,18.2,11.6,30.04,WNW,298,19.6,19.6,75,0.00,CLR,,0.00,WeatherDisplay:10.37,2013-01-25 15:29:00,
2013-01-25 09:34:00,18.4,11.8,30.04,WNW,292,13.0,13.0,75,0.00,CLR,,0.00,WeatherDisplay:10.37,2013-01-25 15:34:00,
2013-01-25 09:39:00,18.3,12.3,30.05,NW,304,6.9,6.9,77,0.00,CLR,,0.00,WeatherDisplay:10.37,2013-01-25 15:39:00,
2013-01-25 09:44:00,18.2,12.5,30.05,NW,310,17.3,17.3,78,0.00,CLR,,0.00,WeatherDisplay:10.37,2013-01-25 15:44:00,
2013-01-25 09:49:00,17.9,9.8,30.05,NW,305,19.6,19.6,70,0.00,CLR,,0.00,WeatherDisplay:10.37,2013-01-25 15:49:00,
2013-01-25 09:54:00,17.9,8.8,30.05,WNW,296,15.0,15.0,67,0.00,CLR,,0.00,WeatherDisplay:10.37,2013-01-25 15:54:00,
2013-01-25 09:59:00,17.7,5.4,30.05,NW,319,17.3,17.3,58,0.00,CLR,,0.00,WeatherDisplay:10.37,2013-01-25 15:59:00,
2013-01-25 10:04:00,17.3,4.3,30.06,NW,322,20.7,20.7,56,0.00,CLR,,0.00,WeatherDisplay:10.37,2013-01-25 16:04:00,
2013-01-25 10:09:00,17.2,4.6,30.06,West,269,23.0,23.0,57,0.00,CLR,,0.00,WeatherDisplay:10.37,2013-01-25 16:09:00,
2013-01-25 10:14:00,16.7,4.1,30.06,WNW,302,19.6,19.6,57,0.00,CLR,,0.00,WeatherDisplay:10.37,2013-01-25 16:14:00,
2013-01-25 10:19:00,16.3,4.1,30.06,NNW,329,21.9,21.9,58,0.00,CLR,,0.00,WeatherDisplay:10.37,2013-01-25 16:19:00,
2013-01-25 10:24:00,16.3,4.1,30.07,NNW,328,15.0,15.0,58,0.00,CLR,,0.00,WeatherDisplay:10.37,2013-01-25 16:24:00,
2013-01-25 10:29:00,16.1,3.5,30.07,NW,321,18.4,18.4,57,0.00,CLR,,0.00,WeatherDisplay:10.37,2013-01-25 16:29:00,
2013-01-25 10:34:00,15.9,3.7,30.07,NW,307,17.3,17.3,58,0.00,CLR,,0.00,WeatherDisplay:10.37,2013-01-25 16:34:00,
2013-01-25 10:39:00,15.6,3.4,30.07,NW,313,16.1,16.1,58,0.00,CLR,,0.00,WeatherDisplay:10.37,2013-01-25 16:39:00,
2013-01-25 10:44:00,15.2,3.4,30.07,NW,319,17.3,17.3,59,0.00,CLR,,0.00,WeatherDisplay:10.37,2013-01-25 16:44:00,
2013-01-25 10:49:00,15.2,3.8,30.07,NW,321,10.4,10.4,60,0.00,CLR,,0.00,WeatherDisplay:10.37,2013-01-25 16:49:00,
2013-01-25 10:54:00,15.0,3.6,30.07,WNW,296,16.1,16.1,60,0.00,CLR,,0.00,WeatherDisplay:10.37,2013-01-25 16:54:00,
2013-01-25 10:59:00,15.1,4.1,30.07,WSW,246,21.0,21.0,61,0.00,CLR,,0.00,WeatherDisplay:10.37,2013-01-25 16:59:00,
2013-01-25 11:04:00,14.8,3.4,30.07,NNW,330,20.7,20.7,60,0.00,CLR,,0.00,WeatherDisplay:10.37,2013-01-25 17:04:00,
2013-01-25 11:09:00,14.9,3.9,30.08,NW,316,17.3,17.3,61,0.00,CLR,,0.00,WeatherDisplay:10.37,2013-01-25 17:09:00,
2013-01-25 11:14:00,14.9,3.9,30.08,WNW,298,3.5,3.5,61,0.00,CLR,,0.00,WeatherDisplay:10.37,2013-01-25 17:14:00,
2013-01-25 11:19:00,14.8,3.4,30.08,WNW,287,16.1,16.1,60,0.00,CLR,,0.00,WeatherDisplay:10.37,2013-01-25 17:19:00,
2013-01-25 11:24:00,14.5,3.1,30.08,WNW,297,15.0,15.0,60,0.00,CLR,,0.00,WeatherDisplay:10.37,2013-01-25 17:24:00,
2013-01-25 11:29:00,14.6,3.9,30.09,NW,311,11.5,11.5,62,0.00,CLR,,0.00,WeatherDisplay:10.37,2013-01-25 17:29:00,
2013-01-25 11:34:00,14.4,3.7,30.09,NW,314,17.3,17.3,62,0.00,CLR,,0.00,WeatherDisplay:10.37,2013-01-25 17:34:00,
2013-01-25 11:39:00,14.5,3.8,30.09,NW,304,11.5,11.5,62,0.00,CLR,,0.00,WeatherDisplay:10.37,2013-01-25 17:39:00,
2013-01-25 11:44:00,14.3,3.3,30.10,NW,308,11.5,11.5,61,0.00,CLR,,0.00,WeatherDisplay:10.37,2013-01-25 17:44:00,
2013-01-25 11:49:00,13.9,3.3,30.10,NNW,342,15.0,15.0,62,0.00,CLR,,0.00,WeatherDisplay:10.37,2013-01-25 17:49:00,
2013-01-25 11:55:00,14.0,3.4,30.10,NNW,336,19.6,19.6,62,0.00,CLR,,0.00,WeatherDisplay:10.37,2013-01-25 17:55:00,
2013-01-25 12:00:00,13.5,2.9,30.10,NW,311,16.1,16.1,62,0.00,CLR,,0.00,WeatherDisplay:10.37,2013-01-25 18:00:00,
2013-01-25 12:05:00,13.4,2.8,30.10,NW,314,19.6,19.6,62,0.00,CLR,,0.00,WeatherDisplay:10.37,2013-01-25 18:05:00,
2013-01-25 12:10:00,13.4,2.8,30.10,NW,313,20.7,20.7,62,0.00,CLR,,0.00,WeatherDisplay:10.37,2013-01-25 18:10:00,
2013-01-25 12:15:00,13.6,3.0,30.10,NW,322,16.1,16.1,62,0.00,CLR,,0.00,WeatherDisplay:10.37,2013-01-25 18:15:00,
2013-01-25 12:20:00,13.4,2.8,30.10,NW,304,15.0,15.0,62,0.00,CLR,,0.00,WeatherDisplay:10.37,2013-01-25 18:20:00,
2013-01-25 12:25:00,13.6,2.6,30.11,NW,313,19.6,19.6,61,0.00,CLR,,0.00,WeatherDisplay:10.37,2013-01-25 18:25:00,
2013-01-25 12:30:00,13.1,2.2,30.11,NW,315,11.5,11.5,61,0.00,CLR,,0.00,WeatherDisplay:10.37,2013-01-25 18:30:00,
2013-01-25 12:35:00,13.1,2.5,30.12,NNW,339,9.2,9.2,62,0.00,CLR,,0.00,WeatherDisplay:10.37,2013-01-25 18:35:00,
2013-01-25 12:40:00,12.7,1.8,30.12,NW,309,16.1,16.1,61,0.00,CLR,,0.00,WeatherDisplay:10.37,2013-01-25 18:40:00,
2013-01-25 12:45:00,12.5,1.6,30.12,WNW,301,12.0,25.0,61,0.00,CLR,,0.00,WeatherDisplay:10.37,2013-01-25 18:45:00,
2013-01-25 12:50:00,12.7,1.8,30.12,WNW,296,17.3,17.3,61,0.00,CLR,,0.00,WeatherDisplay:10.37,2013-01-25 18:50:00,
2013-01-25 12:55:00,12.9,2.0,30.12,WNW,297,15.0,15.0,61,0.00,CLR,,0.00,WeatherDisplay:10.37,2013-01-25 18:55:00,
2013-01-25 13:00:00,13.0,2.1,30.12,NW,313,11.5,11.5,61,0.00,CLR,,0.00,WeatherDisplay:10.37,2013-01-25 19:00:00,
2013-01-25 13:05:00,13.0,2.1,30.12,West,278,11.5,11.5,61,0.00,CLR,,0.00,WeatherDisplay:10.37,2013-01-25 19:05:00,
2013-01-25 13:10:00,13.1,2.2,30.12,NW,304,18.4,18.4,61,0.00,CLR,,0.00,WeatherDisplay:10.37,2013-01-25 19:10:00,
2013-01-25 13:15:00,13.0,2.1,30.13,WNW,300,15.0,15.0,61,0.00,CLR,,0.00,WeatherDisplay:10.37,2013-01-25 19:15:00,
2013-01-25 13:20:00,12.9,2.0,30.13,NW,311,10.4,10.4,61,0.00,CLR,,0.00,WeatherDisplay:10.37,2013-01-25 19:20:00,
2013-01-25 13:25:00,13.1,2.2,30.13,NW,318,18.4,18.4,61,0.00,CLR,,0.00,WeatherDisplay:10.37,2013-01-25 19:25:00,
2013-01-25 13:30:00,12.9,2.0,30.13,NW,314,12.7,12.7,61,0.00,CLR,,0.00,WeatherDisplay:10.37,2013-01-25 19:30:00,
2013-01-25 13:35:00,12.9,1.6,30.13,NW,311,19.6,19.6,60,0.00,CLR,,0.00,WeatherDisplay:10.37,2013-01-25 19:35:00,
2013-01-25 13:40:00,13.0,2.1,30.13,NW,304,13.8,13.8,61,0.00,CLR,,0.00,WeatherDisplay:10.37,2013-01-25 19:40:00,
2013-01-25 13:45:00,12.8,1.5,30.14,NNW,327,15.0,15.0,60,0.00,CLR,,0.00,WeatherDisplay:10.37,2013-01-25 19:45:00,
2013-01-25 13:50:00,12.7,1.8,30.14,NW,314,16.1,16.1,61,0.00,CLR,,0.00,WeatherDisplay:10.37,2013-01-25 19:50:00,
2013-01-25 13:55:00,12.8,2.2,30.14,WNW,298,4.6,4.6,62,0.00,CLR,,0.00,WeatherDisplay:10.37,2013-01-25 19:55:00,
2013-01-25 14:00:00,12.8,1.9,30.14,NW,316,12.7,12.7,61,0.00,CLR,,0.00,WeatherDisplay:10.37,2013-01-25 20:00:00,
2013-01-25 14:05:00,12.5,1.6,30.14,WNW,296,19.6,19.6,61,0.00,CLR,,0.00,WeatherDisplay:10.37,2013-01-25 20:05:00,
2013-01-25 14:10:00,12.3,1.7,30.14,WNW,283,12.7,12.7,62,0.00,CLR,,0.00,WeatherDisplay:10.37,2013-01-25 20:10:00,
2013-01-25 14:15:00,12.4,1.5,30.15,WNW,299,16.1,16.1,61,0.00,CLR,,0.00,WeatherDisplay:10.37,2013-01-25 20:15:00,
2013-01-25 14:20:00,12.3,1.4,30.16,NNW,338,5.8,5.8,61,0.00,CLR,,0.00,WeatherDisplay:10.37,2013-01-25 20:20:00,
2013-01-25 14:25:00,12.4,1.5,30.16,NW,309,13.8,13.8,61,0.00,CLR,,0.00,WeatherDisplay:10.37,2013-01-25 20:25:00,
2013-01-25 14:30:00,12.2,1.3,30.16,WNW,300,17.3,17.3,61,0.00,CLR,,0.00,WeatherDisplay:10.37,2013-01-25 20:30:00,
2013-01-25 14:35:00,12.2,3.6,30.16,West,278,12.7,12.7,68,0.00,CLR,,0.00,WeatherDisplay:10.37,2013-01-25 20:35:00,
2013-01-25 14:40:00,12.5,1.6,30.16,WNW,302,13.8,13.8,61,0.00,CLR,,0.00,WeatherDisplay:10.37,2013-01-25 20:40:00,
2013-01-25 14:45:00,12.5,1.6,30.16,WNW,299,12.7,12.7,61,0.00,CLR,,0.00,WeatherDisplay:10.37,2013-01-25 20:45:00,
2013-01-25 14:50:00,12.4,1.5,30.17,WNW,302,11.5,11.5,61,0.00,CLR,,0.00,WeatherDisplay:10.37,2013-01-25 20:50:00,
2013-01-25 14:55:00,12.8,1.9,30.17,WNW,302,11.5,11.5,61,0.00,CLR,,0.00,WeatherDisplay:10.37,2013-01-25 20:55:00,
2013-01-25 15:00:00,12.7,1.8,30.17,NNW,331,13.8,13.8,61,0.00,CLR,,0.00,WeatherDisplay:10.37,2013-01-25 21:00:00,
2013-01-25 15:05:00,12.3,1.4,30.17,West,267,15.0,15.0,61,0.00,CLR,,0.00,WeatherDisplay:10.37,2013-01-25 21:05:00,
2013-01-25 15:10:00,12.2,1.3,30.18,WNW,299,16.1,16.1,61,0.00,CLR,,0.00,WeatherDisplay:10.37,2013-01-25 21:10:00,
2013-01-25 15:15:00,12.1,1.2,30.18,NW,319,13.8,13.8,61,0.00,CLR,,0.00,WeatherDisplay:10.37,2013-01-25 21:15:00,
2013-01-25 15:20:00,12.1,1.2,30.18,WNW,283,16.1,16.1,61,0.00,CLR,,0.00,WeatherDisplay:10.37,2013-01-25 21:20:00,
2013-01-25 15:25:00,11.8,0.9,30.18,NW,315,16.1,16.1,61,0.00,CLR,,0.00,WeatherDisplay:10.37,2013-01-25 21:25:00,
2013-01-25 15:30:00,11.9,1.0,30.18,NW,322,11.5,11.5,61,0.00,CLR,,0.00,WeatherDisplay:10.37,2013-01-25 21:30:00,
2013-01-25 15:35:00,12.0,1.1,30.17,NW,304,6.0,6.0,61,0.00,CLR,,0.00,WeatherDisplay:10.37,2013-01-25 21:35:00,
2013-01-25 15:40:00,12.0,1.1,30.17,NW,313,12.7,12.7,61,0.00,CLR,,0.00,WeatherDisplay:10.37,2013-01-25 21:40:00,
2013-01-25 15:45:00,11.9,1.4,30.18,NNW,336,10.4,10.4,62,0.00,CLR,,0.00,WeatherDisplay:10.37,2013-01-25 21:45:00,
2013-01-25 15:50:00,12.0,1.1,30.18,WNW,303,15.0,15.0,61,0.00,CLR,,0.00,WeatherDisplay:10.37,2013-01-25 21:50:00,
2013-01-25 15:55:00,11.9,1.4,30.19,NW,319,11.5,11.5,62,0.00,CLR,,0.00,WeatherDisplay:10.37,2013-01-25 21:55:00,
2013-01-25 16:00:00,11.4,0.9,30.19,NNW,327,15.0,15.0,62,0.00,CLR,,0.00,WeatherDisplay:10.37,2013-01-25 22:00:00,
2013-01-25 16:05:00,11.0,0.5,30.19,NW,314,13.8,13.8,62,0.00,CLR,,0.00,WeatherDisplay:10.37,2013-01-25 22:05:00,
2013-01-25 16:10:00,11.1,0.6,30.20,NW,323,10.4,10.4,62,0.00,CLR,,0.00,WeatherDisplay:10.37,2013-01-25 22:10:00,
2013-01-25 16:15:00,11.2,0.7,30.19,NW,304,10.4,10.4,62,0.00,CLR,,0.00,WeatherDisplay:10.37,2013-01-25 22:15:00,
2013-01-25 16:20:00,11.3,0.8,30.20,NNW,338,4.6,4.6,62,0.00,CLR,,0.00,WeatherDisplay:10.37,2013-01-25 22:20:00,
2013-01-25 16:25:00,11.2,0.7,30.20,NW,317,5.8,5.8,62,0.00,CLR,,0.00,WeatherDisplay:10.37,2013-01-25 22:25:00,
2013-01-25 16:30:00,11.0,0.9,30.20,NNW,328,4.6,4.6,63,0.00,CLR,,0.00,WeatherDisplay:10.37,2013-01-25 22:30:00,
2013-01-25 16:35:00,10.9,0.8,30.20,NNW,330,5.8,5.8,63,0.00,CLR,,0.00,WeatherDisplay:10.37,2013-01-25 22:35:00,
2013-01-25 16:40:00,10.7,0.2,30.20,NNW,338,9.2,9.2,62,0.00,CLR,,0.00,WeatherDisplay:10.37,2013-01-25 22:40:00,
2013-01-25 16:45:00,10.5,0.4,30.21,NW,312,6.9,6.9,63,0.00,CLR,,0.00,WeatherDisplay:10.37,2013-01-25 22:45:00,
2013-01-25 16:50:00,10.4,0.3,30.21,WNW,300,10.4,10.4,63,0.00,CLR,,0.00,WeatherDisplay:10.37,2013-01-25 22:50:00,
2013-01-25 16:55:00,10.2,0.4,30.22,NW,309,10.4,10.4,64,0.00,CLR,,0.00,WeatherDisplay:10.37,2013-01-25 22:55:00,
2013-01-25 17:00:00,9.9,0.1,30.22,NW,323,3.5,3.5,64,0.00,CLR,,0.00,WeatherDisplay:10.37,2013-01-25 23:00:00,
2013-01-25 17:05:00,9.9,0.1,30.22,NW,322,11.5,11.5,64,0.00,CLR,,0.00,WeatherDisplay:10.37,2013-01-25 23:05:00,
2013-01-25 17:10:00,9.5,0.1,30.23,NNW,331,3.5,3.5,65,0.00,CLR,,0.00,WeatherDisplay:10.37,2013-01-25 23:10:00,
2013-01-25 17:15:00,9.3,-0.1,30.23,NNW,327,6.9,6.9,65,0.00,CLR,,0.00,WeatherDisplay:10.37,2013-01-25 23:15:00,
2013-01-25 17:20:00,9.2,-0.2,30.23,NW,326,4.6,4.6,65,0.00,CLR,,0.00,WeatherDisplay:10.37,2013-01-25 23:20:00,
2013-01-25 17:25:00,9.1,-0.3,30.23,NW,317,3.5,3.5,65,0.00,CLR,,0.00,WeatherDisplay:10.37,2013-01-25 23:25:00,
2013-01-25 17:30:00,9.0,-0.1,30.23,NW,307,6.9,6.9,66,0.00,CLR,,0.00,WeatherDisplay:10.37,2013-01-25 23:30:00,
2013-01-25 17:35:00,8.9,-0.2,30.24,NW,323,11.5,11.5,66,0.00,CLR,,0.00,WeatherDisplay:10.37,2013-01-25 23:35:00,
2013-01-25 17:40:00,8.8,-0.3,30.24,NW,305,6.9,6.9,66,0.00,CLR,,0.00,WeatherDisplay:10.37,2013-01-25 23:40:00,
2013-01-25 17:45:00,8.6,-0.4,30.24,NW,317,4.6,4.6,66,0.00,CLR,,0.00,WeatherDisplay:10.37,2013-01-25 23:45:00,
2013-01-25 17:50:00,8.6,-0.4,30.24,NW,310,3.5,3.5,66,0.00,CLR,,0.00,WeatherDisplay:10.37,2013-01-25 23:50:00,
2013-01-25 17:55:00,8.5,-0.5,30.24,NW,306,2.3,2.3,66,0.00,CLR,,0.00,WeatherDisplay:10.37,2013-01-25 23:55:00,
2013-01-25 18:00:00,8.3,-0.4,30.24,NW,318,6.9,6.9,67,0.00,CLR,,0.00,WeatherDisplay:10.37,2013-01-26 00:00:00,
2013-01-25 18:05:00,8.2,-0.5,30.24,WNW,295,5.8,5.8,67,0.00,CLR,,0.00,WeatherDisplay:10.37,2013-01-26 00:05:00,
2013-01-25 18:11:00,8.1,-0.6,30.25,WNW,296,3.0,3.0,67,0.00,CLR,,0.00,WeatherDisplay:10.37,2013-01-26 00:11:00,
2013-01-25 18:16:00,8.0,-0.7,30.25,NW,311,4.6,4.6,67,0.00,CLR,,0.00,WeatherDisplay:10.37,2013-01-26 00:16:00,
2013-01-25 18:21:00,7.9,-0.8,30.25,WNW,295,1.1,1.1,67,0.00,CLR,,0.00,WeatherDisplay:10.37,2013-01-26 00:21:00,
2013-01-25 18:26:00,7.8,-0.9,30.25,NW,317,2.3,2.3,67,0.00,CLR,,0.00,WeatherDisplay:10.37,2013-01-26 00:26:00,
2013-01-25 18:31:00,7.8,-0.9,30.26,WNW,282,3.5,3.5,67,0.00,CLR,,0.00,WeatherDisplay:10.37,2013-01-26 00:31:00,
2013-01-25 18:36:00,7.6,-0.8,30.26,WNW,286,3.5,3.5,68,0.00,CLR,,0.00,WeatherDisplay:10.37,2013-01-26 00:36:00,
2013-01-25 18:41:00,7.5,-0.9,30.26,WNW,292,1.1,1.1,68,0.00,CLR,,0.00,WeatherDisplay:10.37,2013-01-26 00:41:00,
2013-01-25 18:46:00,7.3,-1.1,30.27,WSW,257,2.3,2.3,68,0.00,CLR,,0.00,WeatherDisplay:10.37,2013-01-26 00:46:00,
2013-01-25 18:51:00,7.2,-1.2,30.27,WNW,295,2.0,2.0,68,0.00,CLR,,0.00,WeatherDisplay:10.37,2013-01-26 00:51:00,
2013-01-25 18:56:00,7.2,-1.2,30.27,WNW,286,3.5,3.5,68,0.00,CLR,,0.00,WeatherDisplay:10.37,2013-01-26 00:56:00,
2013-01-25 19:01:00,7.1,-1.2,30.28,WNW,290,6.9,6.9,68,0.00,CLR,,0.00,WeatherDisplay:10.37,2013-01-26 01:01:00,
2013-01-25 19:06:00,7.0,-1.3,30.28,WNW,300,9.2,9.2,68,0.00,CLR,,0.00,WeatherDisplay:10.37,2013-01-26 01:06:00,
2013-01-25 19:11:00,6.8,-1.2,30.28,NW,311,2.3,2.3,69,0.00,CLR,,0.00,WeatherDisplay:10.37,2013-01-26 01:11:00,
2013-01-25 19:16:00,6.7,-1.3,30.28,NW,304,6.9,6.9,69,0.00,CLR,,0.00,WeatherDisplay:10.37,2013-01-26 01:16:00,
2013-01-25 19:21:00,6.7,-1.3,30.28,WNW,287,3.5,3.5,69,0.00,CLR,,0.00,WeatherDisplay:10.37,2013-01-26 01:21:00,
2013-01-25 19:26:00,6.5,-1.5,30.28,WNW,292,4.6,4.6,69,0.00,CLR,,0.00,WeatherDisplay:10.37,2013-01-26 01:26:00,
2013-01-25 19:31:00,6.5,-1.5,30.29,WNW,290,3.5,3.5,69,0.00,CLR,,0.00,WeatherDisplay:10.37,2013-01-26 01:31:00,
2013-01-25 19:36:00,6.4,-1.6,30.29,WNW,286,3.5,3.5,69,0.00,CLR,,0.00,WeatherDisplay:10.37,2013-01-26 01:36:00,
2013-01-25 19:41:00,6.3,-1.7,30.29,WNW,285,9.2,9.2,69,0.00,CLR,,0.00,WeatherDisplay:10.37,2013-01-26 01:41:00,
2013-01-25 19:46:00,6.2,-1.8,30.29,WNW,300,4.6,4.6,69,0.00,CLR,,0.00,WeatherDisplay:10.37,2013-01-26 01:46:00,
2013-01-25 19:51:00,6.1,-1.6,30.30,NNW,341,2.3,2.3,70,0.00,CLR,,0.00,WeatherDisplay:10.37,2013-01-26 01:51:00,
2013-01-25 19:56:00,6.0,-1.7,30.30,WNW,295,1.1,1.1,70,0.00,CLR,,0.00,WeatherDisplay:10.37,2013-01-26 01:56:00,
2013-01-25 20:01:00,5.9,-1.8,30.30,West,263,9.0,9.0,70,0.00,CLR,,0.00,WeatherDisplay:10.37,2013-01-26 02:01:00,
2013-01-25 20:06:00,5.8,-1.9,30.30,WNW,298,3.5,3.5,70,0.00,CLR,,0.00,WeatherDisplay:10.37,2013-01-26 02:06:00,
2013-01-25 20:11:00,5.7,-2.0,30.30,NW,316,3.5,3.5,70,0.00,CLR,,0.00,WeatherDisplay:10.37,2013-01-26 02:11:00,
2013-01-25 20:16:00,5.6,-2.1,30.31,NNW,327,2.0,2.0,70,0.00,CLR,,0.00,WeatherDisplay:10.37,2013-01-26 02:16:00,
2013-01-25 20:21:00,5.6,-2.1,30.31,WNW,301,3.5,3.5,70,0.00,CLR,,0.00,WeatherDisplay:10.37,2013-01-26 02:21:00,
2013-01-25 20:26:00,5.6,-2.1,30.31,NW,317,2.3,2.3,70,0.00,CLR,,0.00,WeatherDisplay:10.37,2013-01-26 02:26:00,
2013-01-25 20:31:00,5.5,-2.2,30.32,WNW,296,3.5,3.5,70,0.00,CLR,,0.00,WeatherDisplay:10.37,2013-01-26 02:31:00,
2013-01-25 20:36:00,5.5,-2.2,30.32,West,279,3.5,3.5,70,0.00,CLR,,0.00,WeatherDisplay:10.37,2013-01-26 02:36:00,
2013-01-25 20:41:00,5.4,-2.3,30.33,WNW,290,3.5,3.5,70,0.00,CLR,,0.00,WeatherDisplay:10.37,2013-01-26 02:41:00,
2013-01-25 20:46:00,5.3,-2.1,30.32,NW,306,1.1,0.0,71,0.00,CLR,,0.00,WeatherDisplay:10.37,2013-01-26 02:46:00,
2013-01-25 20:51:00,5.2,-2.2,30.33,WNW,296,3.5,3.5,71,0.00,CLR,,0.00,WeatherDisplay:10.37,2013-01-26 02:51:00,
2013-01-25 20:56:00,5.1,-2.3,30.33,West,281,1.1,1.1,71,0.00,CLR,,0.00,WeatherDisplay:10.37,2013-01-26 02:56:00,
2013-01-25 21:01:00,5.0,-2.4,30.34,WNW,297,3.5,3.5,71,0.00,CLR,,0.00,WeatherDisplay:10.37,2013-01-26 03:01:00,
2013-01-25 21:06:00,4.9,-2.5,30.34,WNW,294,2.0,2.0,71,0.00,CLR,,0.00,WeatherDisplay:10.37,2013-01-26 03:06:00,
2013-01-25 21:11:00,4.9,-2.5,30.34,NW,307,3.5,3.5,71,0.00,CLR,,0.00,WeatherDisplay:10.37,2013-01-26 03:11:00,
2013-01-25 21:16:00,4.9,-2.5,30.34,WNW,286,4.6,4.6,71,0.00,CLR,,0.00,WeatherDisplay:10.37,2013-01-26 03:16:00,
2013-01-25 21:21:00,4.9,-2.5,30.34,NW,304,2.3,2.3,71,0.00,CLR,,0.00,WeatherDisplay:10.37,2013-01-26 03:21:00,
2013-01-25 21:26:00,4.7,-2.6,30.34,NW,315,2.3,2.3,71,0.00,CLR,,0.00,WeatherDisplay:10.37,2013-01-26 03:26:00,
2013-01-25 21:31:00,4.7,-2.6,30.34,WNW,297,2.3,2.3,71,0.00,CLR,,0.00,WeatherDisplay:10.37,2013-01-26 03:31:00,
2013-01-25 21:36:00,4.6,-2.7,30.34,WNW,301,1.0,1.0,71,0.00,CLR,,0.00,WeatherDisplay:10.37,2013-01-26 03:36:00,
2013-01-25 21:41:00,4.5,-2.8,30.35,WNW,300,0.0,0.1,71,0.00,CLR,,0.00,WeatherDisplay:10.37,2013-01-26 03:41:00,
2013-01-25 21:46:00,4.4,-2.9,30.35,WNW,300,0.0,0.0,71,0.00,CLR,,0.00,WeatherDisplay:10.37,2013-01-26 03:46:00,
2013-01-25 21:51:00,4.3,-3.0,30.35,WNW,300,0.0,0.0,71,0.00,CLR,,0.00,WeatherDisplay:10.37,2013-01-26 03:51:00,
2013-01-25 21:56:00,4.3,-3.0,30.35,WNW,300,0.0,0.0,71,0.00,CLR,,0.00,WeatherDisplay:10.37,2013-01-26 03:56:00,
2013-01-25 22:01:00,4.2,-3.1,30.34,WNW,300,0.0,0.0,71,0.00,CLR,,0.00,WeatherDisplay:10.37,2013-01-26 04:01:00,
2013-01-25 22:06:00,4.1,-3.2,30.34,WNW,300,0.0,0.0,71,0.00,CLR,,0.00,WeatherDisplay:10.37,2013-01-26 04:06:00,
2013-01-25 22:11:00,4.1,-3.2,30.34,WNW,300,0.0,0.0,71,0.00,CLR,,0.00,WeatherDisplay:10.37,2013-01-26 04:11:00,
2013-01-25 22:16:00,4.0,-3.3,30.34,WNW,300,0.0,0.0,71,0.00,CLR,,0.00,WeatherDisplay:10.37,2013-01-26 04:16:00,
2013-01-25 22:21:00,3.8,-3.2,30.34,WNW,300,0.0,0.0,72,0.00,CLR,,0.00,WeatherDisplay:10.37,2013-01-26 04:21:00,
2013-01-25 22:26:00,3.7,-3.3,30.35,WNW,300,0.0,0.0,72,0.00,CLR,,0.00,WeatherDisplay:10.37,2013-01-26 04:26:00,
2013-01-25 22:31:00,3.7,-3.3,30.35,WNW,300,0.0,0.0,72,0.00,CLR,,0.00,WeatherDisplay:10.37,2013-01-26 04:31:00,
2013-01-25 22:36:00,3.6,-3.4,30.35,WNW,300,0.0,0.0,72,0.00,CLR,,0.00,WeatherDisplay:10.37,2013-01-26 04:36:00,
2013-01-25 22:41:00,3.5,-3.5,30.36,WNW,300,0.0,0.0,72,0.00,CLR,,0.00,WeatherDisplay:10.37,2013-01-26 04:41:00,
2013-01-25 22:46:00,3.5,-3.5,30.36,WNW,300,0.0,0.0,72,0.00,CLR,,0.00,WeatherDisplay:10.37,2013-01-26 04:46:00,
2013-01-25 22:51:00,3.4,-3.3,30.36,WNW,300,0.0,0.0,73,0.00,CLR,,0.00,WeatherDisplay:10.37,2013-01-26 04:51:00,
2013-01-25 22:56:00,3.3,-3.4,30.36,WNW,300,0.0,0.0,73,0.00,CLR,,0.00,WeatherDisplay:10.37,2013-01-26 04:56:00,
2013-01-25 23:00:00,3.3,-3.4,30.36,WNW,300,0.0,0.0,73,0.00,CLR,,0.00,WeatherDisplay:10.37,2013-01-26 05:00:00,
2013-01-25 23:01:00,3.3,-3.4,30.36,WNW,300,0.0,0.0,73,0.00,CLR,,0.00,WeatherDisplay:10.37,2013-01-26 05:01:00,
2013-01-25 23:03:00,3.3,-3.4,30.36,WNW,300,0.0,0.0,73,0.00,CLR,,0.00,WeatherDisplay:10.37,2013-01-26 05:03:00,
2013-01-25 23:08:00,3.3,-3.7,30.36,WNW,300,0.0,0.0,72,0.00,CLR,,0.00,WeatherDisplay:10.37,2013-01-26 05:08:00,
2013-01-25 23:13:00,3.2,-3.8,30.36,WNW,300,0.0,0.0,72,0.00,CLR,,0.00,WeatherDisplay:10.37,2013-01-26 05:13:00,
2013-01-25 23:18:00,3.2,-3.8,30.37,WNW,300,0.0,0.0,72,0.00,CLR,,0.00,WeatherDisplay:10.37,2013-01-26 05:18:00,
2013-01-25 23:23:00,3.1,-3.6,30.38,WNW,300,0.0,0.0,73,0.00,CLR,,0.00,WeatherDisplay:10.37,2013-01-26 05:23:00,
2013-01-25 23:28:00,3.1,-3.6,30.38,WNW,300,0.0,0.0,73,0.00,CLR,,0.00,WeatherDisplay:10.37,2013-01-26 05:28:00,
2013-01-25 23:33:00,3.1,-3.6,30.37,WNW,300,0.0,0.0,73,0.00,CLR,,0.00,WeatherDisplay:10.37,2013-01-26 05:33:00,
2013-01-25 23:38:00,3.1,-3.9,30.38,WNW,300,0.0,0.0,72,0.00,CLR,,0.00,WeatherDisplay:10.37,2013-01-26 05:38:00,
2013-01-25 23:43:00,3.1,-3.9,30.38,WNW,300,0.0,0.0,72,0.00,CLR,,0.00,WeatherDisplay:10.37,2013-01-26 05:43:00,
2013-01-25 23:48:00,3.0,-4.0,30.38,WNW,300,0.0,0.0,72,0.00,CLR,,0.00,WeatherDisplay:10.37,2013-01-26 05:48:00,
2013-01-25 23:53:00,2.9,-4.1,30.38,WNW,300,0.0,0.0,72,0.00,CLR,,0.00,WeatherDisplay:10.37,2013-01-26 05:53:00,
2013-01-25 23:58:00,2.9,-4.1,30.38,WNW,300,0.0,0.0,72,0.00,CLR,,0.00,WeatherDisplay:10.37,2013-01-26 05:58:00,